EW1382 Weather Reports


Display with metric or nautical units.
time (UTC)temp
F
wind
direction
speed
MPH
gust
MPH
rain 1hr
in
rain 24hr
in
rain mn
in
humidity
%
barometer
mb
20180920084813 50 218 0.0 0.0 0.00 0.00 0.00 98 1019.4
20180920083323 50 218 0.0 1.0 0.00 0.00 0.00 98 1019.4
20180920081831 50 217 0.0 0.0 0.00 0.00 0.00 98 1019.3
20180920080320 50 217 0.0 0.0 0.00 0.00 0.00 98 1019.3
20180920074828 51 217 0.0 1.0 0.00 0.00 0.00 98 1019.1
20180920073317 51 277 0.0 0.0 0.00 0.00 0.00 98 1019.4
20180920071821 51 277 0.0 0.0 0.00 0.00 0.00 98 1019.5
20180920070314 51 277 0.0 0.0 0.00 0.00 0.00 98 1019.5
20180920064818 51 277 0.0 0.0 0.00 0.00 0.00 98 1019.5
20180920063331 52 278 0.0 1.0 0.00 0.00 0.00 98 1020.0
20180920061815 52 357 0.0 1.0 0.00 0.00 0.00 98 1019.8
20180920060329 51 358 0.0 1.0 0.00 0.00 0.00 98 1019.4
20180920054815 52 358 0.0 0.0 0.00 0.00 0.00 98 1019.6
20180920053325 52 358 0.0 0.0 0.00 0.00 0.00 98 1019.7
20180920051815 52 358 0.0 0.0 0.00 0.00 0.00 98 1019.8
20180920050325 53 358 0.0 0.0 0.00 0.00 0.00 98 1019.9
20180920044813 53 358 0.0 0.0 0.00 0.00 0.00 98 1019.9
20180920043322 53 358 0.0 0.0 0.00 0.00 0.00 98 1020.0
20180920041827 53 358 0.0 0.0 0.00 0.00 0.00 98 1020.0
20180920040317 54 358 0.0 0.0 0.00 0.00 0.00 98 1020.0
20180920034822 54 358 0.0 0.0 0.00 0.00 0.00 98 1019.8
20180920033314 54 358 0.0 1.0 0.00 0.00 0.00 98 1019.6
20180920031818 55 358 0.0 0.0 0.00 0.00 0.00 98 1019.7
20180920030331 54 358 0.0 0.0 0.00 0.00 0.00 97 1019.5
20180920024816 55 358 0.0 0.0 0.00 0.00 0.00 98 1019.5
20180920023326 55 358 0.0 0.0 0.00 0.00 0.00 97 1019.4
20180920021816 56 358 0.0 0.0 0.00 0.00 0.00 97 1019.5
20180920020325 56 358 0.0 1.0 0.00 0.00 0.00 98 1019.6
20180920014816 55 357 0.0 0.0 0.00 0.00 0.00 97 1019.4
20180920013325 56 357 0.0 0.0 0.00 0.00 0.00 97 1019.3
20180920011813 56 27 0.0 1.0 0.00 0.00 0.00 97 1019.3
20180920010322 56 27 0.0 0.0 0.00 0.00 0.00 96 1019.2
20180920004826 57 27 0.0 1.0 0.00 0.00 0.00 96 1019.1
20180920003319 57 27 0.0 0.0 0.00 0.00 0.00 95 1019.1
20180920001823 57 27 0.0 1.0 0.00 0.00 0.00 95 1018.9
20180920000316 57 27 0.0 1.0 0.00 0.00 0.00 94 1018.8
20180919234820 58 27 0.0 0.0 0.00 0.00 0.00 92 1018.7
20180919233329 59 27 0.0 1.0 0.00 0.00 0.00 90 1018.6
20180919231817 60 27 0.0 1.0 0.00 0.00 0.00 89 1018.3
20180919230326 61 27 0.0 5.0 0.00 0.00 0.00 87 1018.2
20180919224815 62 28 3.0 6.0 0.00 0.00 0.00 86 1017.8
20180919223314 63 48 5.0 7.0 0.00 0.00 0.00 85 1017.7
20180919221819 63 30 2.0 8.0 0.00 0.00 0.00 84 1017.8
20180919220333 64 27 3.0 6.0 0.00 0.00 0.00 84 1018.0
20180919214818 64 60 3.0 7.0 0.00 0.00 0.00 83 1017.9
20180919213332 64 342 2.0 7.0 0.00 0.00 0.00 83 1017.8
20180919211816 64 33 4.0 8.0 0.00 0.00 0.00 84 1017.2
20180919210325 65 64 5.0 8.0 0.00 0.00 0.00 84 1016.8
20180919204832 65 70 5.0 11.0 0.00 0.00 0.00 83 1016.8
20180919203321 67 69 4.0 12.0 0.00 0.00 0.00 82 1016.7
20180919201829 66 63 9.0 12.0 0.00 0.00 0.00 81 1016.8
20180919200318 67 36 5.0 8.0 0.00 0.00 0.00 79 1016.9
20180919194827 67 313 4.0 8.0 0.00 0.00 0.00 79 1017.0
20180919193315 67 346 3.0 8.0 0.00 0.00 0.00 81 1017.0
20180919191820 67 346 5.0 8.0 0.00 0.00 0.00 79 1017.0
20180919190333 68 13 4.0 9.0 0.00 0.00 0.00 78 1017.1
20180919184816 68 335 5.0 9.0 0.00 0.00 0.00 78 1017.1
20180919183330 68 61 4.0 12.0 0.00 0.00 0.00 81 1016.9
20180919181814 68 353 5.0 10.0 0.00 0.00 0.00 81 1016.9
20180919180322 68 25 3.0 7.0 0.00 0.00 0.00 80 1017.1
20180919174813 69 60 4.0 8.0 0.00 0.00 0.00 76 1016.5
20180919173323 68 61 4.0 7.0 0.00 0.00 0.00 77 1016.2
20180919171831 69 26 4.0 9.0 0.00 0.00 0.00 78 1016.2
20180919170320 68 56 6.0 8.0 0.00 0.00 0.00 80 1016.2
20180919164828 67 54 2.0 5.0 0.00 0.00 0.00 79 1016.2
20180919163317 69 82 3.0 6.0 0.00 0.00 0.00 78 1016.1
20180919161821 67 54 3.0 5.0 0.00 0.00 0.00 80 1016.3
20180919160314 67 54 4.0 6.0 0.00 0.00 0.00 81 1016.3
20180919154818 68 32 2.0 5.0 0.00 0.00 0.00 80 1016.2
20180919153332 67 17 3.0 5.0 0.00 0.00 0.00 80 1016.2
20180919151816 67 66 3.0 6.0 0.00 0.00 0.00 83 1016.3
20180919150324 66 56 4.0 6.0 0.00 0.00 0.00 83 1016.4
20180919144833 66 81 3.0 6.0 0.00 0.00 0.00 83 1016.5
20180919143322 65 32 4.0 8.0 0.00 0.00 0.00 86 1016.4
20180919141831 65 29 4.0 6.0 0.00 0.00 0.00 88 1016.2
20180919140321 65 1 2.0 5.0 0.00 0.00 0.00 88 1016.1
20180919134829 65 34 2.0 6.0 0.00 0.00 0.00 90 1016.1
20180919133318 64 60 3.0 5.0 0.00 0.00 0.00 88 1015.9
20180919131822 64 54 4.0 8.0 0.00 0.00 0.00 89 1015.7
20180919130315 63 56 3.0 7.0 0.00 0.00 0.00 89 1015.5
20180919124819 64 32 3.0 7.0 0.00 0.00 0.00 90 1015.4
20180919123332 64 52 2.0 10.0 0.00 0.00 0.00 89 1015.3
20180919121818 64 18 2.0 4.0 0.00 0.00 0.00 88 1015.0
20180919120328 63 44 0.0 3.0 0.00 0.00 0.00 89 1014.8
20180919114818 63 32 1.0 3.0 0.00 0.01 0.00 90 1014.8
20180919113328 63 27 2.0 5.0 0.00 0.01 0.00 90 1014.6
20180919111816 63 344 1.0 6.0 0.00 0.01 0.00 90 1014.3
20180919110325 64 20 1.0 3.0 0.00 0.01 0.00 90 1014.0
20180919104815 64 354 2.0 4.0 0.00 0.01 0.00 90 1013.8
20180919103325 64 334 0.0 3.0 0.00 0.01 0.00 90 1013.2
20180919101831 64 340 1.0 4.0 0.00 0.01 0.00 90 1013.0
20180919100325 64 355 1.0 4.0 0.00 0.01 0.00 91 1013.0
20180919094829 64 313 1.0 2.0 0.00 0.01 0.00 92 1012.7
20180919093320 64 324 1.0 2.0 0.00 0.01 0.00 92 1012.5
20180919091825 64 297 1.0 2.0 0.00 0.01 0.00 94 1012.4
20180919090316 64 352 1.0 3.0 0.00 0.01 0.00 95 1012.2